This demonstration page uses our WeatherBlox Daily Observations layout. Learn more.

Left ArrowRight Arrow

Hourly Observations for June 21, 2019

Temp ( °F °C ) Dew Point ( °F °C ) Humidity (%) Winds ( mph kmh ) Pressure ( in mb ) Visibility ( mi km ) Precip ( " mm )
12:51 am 00:51 Clear 79 26.1 21 -6.1 11 11 NNW 10 17 29.65 1004 10 16 0.00 0.00
1:51 am 01:51 Clear 80 26.7 20 -6.7 10 10 WSW 5 7 29.65 1004 10 16 0.00 0.00
2:51 am 02:51 Clear 74 23.3 19 -7.2 12 12 W 3 6 29.66 1004 10 16 0.00 0.00
3:51 am 03:51 Clear 67 19.4 19 -7.2 16 16 E 5 7 29.68 1005 10 16 0.00 0.00
4:51 am 04:51 Clear 67 19.4 20 -6.7 17 17 E 6 9 29.70 1006 10 16 0.00 0.00
5:51 am 05:51 Sunny 67 19.4 19 -7.2 16 16 Calm 29.73 1007 10 16 0.00 0.00
6:51 am 06:51 Sunny 72 22.2 16 -8.9 12 12 SSE 6 9 29.73 1007 10 16 0.00 0.00
7:51 am 07:51 Sunny 79 26.1 17 -8.3 10 10 ESE 8 13 29.74 1007 10 16 0.00 0.00
8:51 am 08:51 Sunny 83 28.3 15 -9.4 8 8 VRB 3 6 29.75 1007 10 16 0.00 0.00
9:51 am 09:51 Sunny 85 29.4 11 -11.7 6 6 VRB 5 7 29.74 1007 10 16 0.00 0.00
10:51 am 10:51 Sunny 90 32.2 11 -11.7 5 5 NW 5 7 29.72 1006 10 16 0.00 0.00
11:51 am 11:51 Sunny 90 32.2 14 -10 6 6 undefined N/A 29.70 1006 10 16 0.00 0.00
12:51 pm 12:51 Sunny 92 33.3 13 -10.6 5 5 Calm 29.67 1005 10 16 0.00 0.00
1:51 pm 13:51 Mostly Sunny 96 35.6 12 -11.1 4 4 VRB 5 7 29.64 1004 10 16 0.00 0.00
2:51 pm 14:51 Mostly Sunny 95 35 12 -11.1 5 5 VRB 5 7 29.62 1003 10 16 0.00 0.00
3:51 pm 15:51 Mostly Sunny 98 36.7 10 -12.2 4 4 W 15 24 29.61 1003 10 16 0.00 0.00
4:51 pm 16:51 Partly Cloudy 97 36.1 12 -11.1 4 4 WSW 17 28 29.60 1002 10 16 0.00 0.00
5:51 pm 17:51 Mostly Sunny 96 35.6 15 -9.4 5 5 W 16 26 29.60 1002 10 16 0.00 0.00
6:51 pm 18:51 Mostly Sunny 93 33.9 15 -9.4 6 6 W 16 26 29.61 1003 10 16 0.00 0.00
7:51 pm 19:51 Mostly Clear 89 31.7 12 -11.1 5 5 WSW 10 17 29.62 1003 10 16 0.00 0.00
8:51 pm 20:51 Clear 86 30 12 -11.1 6 6 W 9 15 29.63 1003 10 16 0.00 0.00
9:51 pm 21:51 Clear 80 26.7 22 -5.6 11 11 NW 9 15 29.66 1005 10 16 0.00 0.00
10:51 pm 22:51 Clear 80 26.7 25 -3.9 13 13 NNW 12 19 29.66 1004 10 16 0.00 0.00
11:51 pm 23:51 Clear 78 25.6 26 -3.3 15 15 WNW 13 20 29.67 1005 10 16 0.00 0.00

Powered by AerisWeather